Terug naar catalogus

STARLINK-32075

ActiefCommunicatieVLEO
NORAD 60345·PAYLOAD·🇺🇸 United States

Gelanceerd Aug 2, 2024 vanaf Cape Canaveral Space Force Station

Loading…

Volgende Passages (komende 24 uur)

TLE

VersSource: CelesTrak SupGP

Epoch: Sep 14, 2026, 21:31 UTC

1 60345C 24136S   26257.89701389  .00049796  00000+0  14715-2 0  2572
2 60345  53.1584 276.1680 0001296  89.5318 216.4059 15.34359354    18

Volg STARLINK-32075 in realtime met AllMySat

Download on the App Store